Weather in Potik

Ukraine / Kyiv Region     49°45′44″N   31°03′15″E
temp.,
°C
wind,
m/s
gust,
m/s
humid.,
%
clouds,
%
prec.,
mm/h
press.,
hPa
HPBL,
m
22 october, fri
fri2200:00+12sw51149100 0.0 1007251
03:00+12wsw51257100 0.0 1008403
06:00+14wsw6125971 0.0 1008736
09:00+13wsw4116997 0.0 1010606
12:00+17w8124811 0.0 10121524
15:00+18w710364 0.0 10121977
18:00+13wnw3652100 0.0 1012106
21:00+12sw2252100 0.0 101320
23 october, sat
sat2300:00+12sw355496 0.0 1013114
03:00+9wsw411680 0.0 1013246
06:00+8wsw5137338 0.0 1014377
09:00+9w611490 0.0 1015799
12:00+12w812415 0.0 10161562
15:00+12wnw810335 0.0 10171956
18:00+9wnw49425 0.0 1018213
21:00+5nw376299 0.0 1021170
24 october, sun
sun2400:00+4w387312 0.0 1022172
03:00+3wsw410748 0.0 1022237
06:00+2w511805 0.0 1022293
09:00+4wnw5128352 0.0 1024494
12:00+8nw786490 0.0 10251150
15:00+6nw71064100 0.1 10261292
18:00+6nw71160100 0.0 10271187
21:00+4nw6126388 0.1 1028532
25 october, mon
mon2500:00+3nw51062100 0.0 1030391
03:00+1nnw4972100 0.1 1031341
06:000nnw37805 0.0 1032176
09:00+1n48715 0.0 1034343
12:00+5nne34492 0.0 1035866
15:00+7nne22400 0.0 10341079
18:00+3ne22515 0.0 103512
21:00+2ese225916 0.0 103511
26 october, tue
tue2600:00+1se33645 0.0 103628
03:000sse34675 0.0 103554
06:00−1sse34705 0.0 103553
09:00+1sse356255 0.0 1035158
12:00+7s5636100 0.0 1033704
15:00+8s5630100 0.0 1031927
18:00+5sse3542100 0.0 103070
21:00+3s485399 0.0 1030124